TimeEST,TemperatureF,Dew PointF,Humidity,Sea Level PressureIn,VisibilityMPH,Wind Direction,Wind SpeedMPH,Gust SpeedMPH,PrecipitationIn,Events,Conditions,WindDirDegrees,DateUTC
12:51 AM,41.0,21.9,47,30.36,10.0,ENE,8.1,-,N/A,,Mostly Cloudy,70,2012-02-29 05:51:00
1:51 AM,39.9,21.9,49,30.36,10.0,East,6.9,-,N/A,,Clear,80,2012-02-29 06:51:00
2:51 AM,39.0,21.0,49,30.35,10.0,ENE,6.9,-,N/A,,Overcast,70,2012-02-29 07:51:00
3:51 AM,37.9,21.9,53,30.32,10.0,ENE,6.9,-,N/A,,Mostly Cloudy,70,2012-02-29 08:51:00
4:51 AM,37.9,21.9,53,30.30,10.0,East,6.9,-,N/A,,Mostly Cloudy,80,2012-02-29 09:51:00
5:51 AM,37.9,21.0,51,30.30,10.0,ENE,6.9,-,N/A,,Overcast,70,2012-02-29 10:51:00
6:21 AM,37.4,21.2,52,30.29,10.0,ENE,5.8,-,N/A,,Overcast,70,2012-02-29 11:21:00
6:51 AM,37.9,19.9,48,30.28,10.0,ENE,8.1,-,N/A,,Mostly Cloudy,60,2012-02-29 11:51:00
7:06 AM,39.2,19.4,45,30.28,10.0,ENE,5.8,-,N/A,,Mostly Cloudy,70,2012-02-29 12:06:00
7:51 AM,39.0,19.0,45,30.28,10.0,ENE,5.8,-,N/A,,Mostly Cloudy,70,2012-02-29 12:51:00
8:51 AM,41.0,21.9,47,30.26,10.0,NE,9.2,-,N/A,,Overcast,50,2012-02-29 13:51:00
9:51 AM,41.0,25.0,53,30.22,10.0,ENE,10.4,-,N/A,,Overcast,60,2012-02-29 14:51:00
10:51 AM,41.0,28.9,62,30.21,10.0,NE,13.8,-,N/A,,Overcast,40,2012-02-29 15:51:00
11:51 AM,41.0,33.1,73,30.17,3.0,NE,16.1,24.2,0.00,Rain,Light Rain,50,2012-02-29 16:51:00
12:51 PM,43.0,36.0,76,30.12,4.0,SE,13.8,17.3,0.07,Rain,Rain,130,2012-02-29 17:51:00
1:47 PM,42.8,35.6,76,30.03,4.0,East,12.7,-,0.06,Rain,Rain,100,2012-02-29 18:47:00
1:51 PM,42.1,35.1,76,30.03,4.0,East,15.0,-,0.07,Rain,Light Rain,90,2012-02-29 18:51:00
2:51 PM,41.0,36.0,82,30.01,4.0,East,10.4,-,0.08,Rain,Light Rain,100,2012-02-29 19:51:00
3:51 PM,41.0,37.0,86,29.99,4.0,ENE,12.7,-,0.07,Rain,Light Rain,60,2012-02-29 20:51:00
4:12 PM,41.0,37.4,87,29.95,2.0,ENE,15.0,-,0.02,Rain,Rain,70,2012-02-29 21:12:00
4:19 PM,41.0,37.4,87,29.95,2.5,ENE,12.7,-,0.03,Rain,Light Rain,60,2012-02-29 21:19:00
4:25 PM,41.0,37.4,87,29.95,3.0,ENE,13.8,-,0.03,Rain,Light Rain,60,2012-02-29 21:25:00
4:51 PM,41.0,37.0,86,29.94,4.0,ENE,12.7,-,0.04,Rain,Light Rain,60,2012-02-29 21:51:00
5:32 PM,41.0,37.4,87,29.94,4.0,NE,11.5,-,0.00,Rain,Light Rain,40,2012-02-29 22:32:00
5:38 PM,41.0,37.4,87,29.93,2.0,ENE,13.8,-,0.01,Rain,Light Rain,60,2012-02-29 22:38:00
5:51 PM,41.0,37.0,86,29.92,2.0,ENE,13.8,-,0.01,Rain,Light Rain,60,2012-02-29 22:51:00
5:58 PM,41.0,37.4,87,29.93,2.0,ENE,11.5,-,0.01,Rain,Light Rain,60,2012-02-29 22:58:00
6:19 PM,42.8,37.4,81,29.92,2.0,ENE,11.5,-,0.01,Rain,Light Rain,60,2012-02-29 23:19:00
6:51 PM,42.1,37.9,85,29.94,2.0,NE,11.5,-,0.01,,Overcast,50,2012-02-29 23:51:00
7:30 PM,41.0,37.4,87,29.90,2.0,ENE,13.8,-,0.01,Rain,Light Rain,60,2012-03-01 00:30:00
7:51 PM,39.9,37.0,89,29.88,2.0,NE,10.4,-,0.01,,Overcast,50,2012-03-01 00:51:00
8:51 PM,39.9,37.0,89,29.86,2.0,NE,12.7,-,N/A,,Overcast,40,2012-03-01 01:51:00
9:19 PM,39.2,37.4,93,29.83,2.0,NE,10.4,-,N/A,,Overcast,50,2012-03-01 02:19:00
9:42 PM,39.2,37.4,93,29.86,2.0,NNE,8.1,-,0.01,,Overcast,30,2012-03-01 02:42:00
9:51 PM,39.9,37.9,93,29.83,2.0,ENE,8.1,-,0.01,Rain,Light Rain,60,2012-03-01 02:51:00
10:44 PM,39.2,37.4,93,29.80,2.0,ENE,16.1,-,0.02,Rain,Light Rain,60,2012-03-01 03:44:00
10:51 PM,39.9,37.0,89,29.81,2.0,NE,13.8,-,0.03,Rain,Light Rain,50,2012-03-01 03:51:00
11:17 PM,39.2,37.4,93,29.79,2.0,ENE,19.6,26.5,0.00,Rain,Light Rain,60,2012-03-01 04:17:00
11:46 PM,39.2,37.4,93,29.77,3.0,NE,13.8,-,0.01,,Overcast,50,2012-03-01 04:46:00
11:51 PM,39.9,37.0,89,29.76,3.0,ENE,15.0,-,0.01,,Overcast,60,2012-03-01 04:51:00